AE7VB Weather Reports


time (UTC)temp
F
wind
direction
speed
knots
gust
knots
rain 1hr
in
rain 24hr
in
rain mn
in
humidity
%
barometer
mb
20260901134550 58 88 0.0 5.2 0.00 0.00 0.00 46 1013.4
20260901133040 56 219 1.7 5.2 0.00 0.00 0.00 48 1014.3
20260901131522 53 229 0.0 0.0 0.00 0.00 0.00 53 1014.1
20260901130016 52 223 0.0 0.9 0.00 0.00 0.00 55 1014.2
20260901124518 52 223 0.0 0.0 0.00 0.00 0.00 53 1014.2
20260901123103 53 222 0.0 0.0 0.00 0.00 0.00 52 1014.2
20260901121559 55 223 0.0 0.0 0.00 0.00 0.00 51 1014.4
20260901120023 55 90 0.0 0.0 0.00 0.00 0.00 49 1014.6
20260901114535 55 92 0.0 0.0 0.00 0.00 0.00 49 1014.7
20260901113017 55 91 0.0 0.0 0.00 0.00 0.00 50 1014.7
20260901111503 54 90 0.0 3.5 0.00 0.00 0.00 52 1014.7
20260901110058 54 128 0.0 0.0 0.00 0.00 0.00 52 1014.6
20260901104553 54 158 0.0 0.0 0.00 0.00 0.00 54 1014.7
20260901103027 54 163 0.0 2.6 0.00 0.00 0.00 54 1014.6
20260901101518 54 179 0.0 1.7 0.00 0.00 0.00 52 1014.7
20260901100055 55 226 0.0 0.0 0.00 0.00 0.00 50 1014.8
20260901094542 56 225 0.0 0.0 0.00 0.00 0.00 49 1014.7
20260901093023 56 225 0.0 1.7 0.00 0.00 0.00 49 1014.7
20260901091508 56 226 0.0 0.0 0.00 0.00 0.00 49 1014.8
20260901090054 57 227 0.0 1.7 0.00 0.00 0.00 48 1014.9
20260901084558 57 229 0.0 2.6 0.00 0.00 0.00 47 1015.0
20260901083033 57 226 0.0 0.0 0.00 0.00 0.00 48 1015.0
20260901081523 56 225 0.0 1.7 0.00 0.00 0.00 48 1015.1
20260901080010 57 229 0.0 0.0 0.00 0.00 0.00 47 1015.3
20260901074601 57 150 0.0 0.0 0.00 0.00 0.00 46 1015.1
20260901073042 58 150 0.0 0.0 0.00 0.00 0.00 46 1015.3
20260901071537 58 150 0.0 0.0 0.00 0.00 0.00 45 1015.4
20260901070012 59 150 0.0 0.9 0.00 0.00 0.00 44 1015.4
20260901064502 59 150 0.0 0.0 0.00 0.00 0.00 44 1015.5
20260901063109 59 150 0.0 0.9 0.00 0.00 0.00 42 1015.6
20260901061548 60 150 0.0 0.0 0.00 0.00 0.00 42 1015.8
20260901060037 60 150 0.0 0.0 0.00 0.00 0.00 40 1015.8
20260901054525 60 130 0.0 0.0 0.00 0.00 0.00 40 1016.0
20260901053010 61 130 0.0 0.0 0.00 0.00 0.00 39 1016.1
20260901051615 61 131 0.0 0.0 0.00 0.00 0.00 38 1016.4
20260901050046 62 130 0.0 0.0 0.00 0.00 0.00 38 1016.5
20260901044541 62 130 0.0 0.0 0.00 0.00 0.00 38 1016.6
20260901043030 62 131 0.0 0.0 0.00 0.00 0.00 37 1016.6
20260901041517 63 129 0.0 0.9 0.00 0.00 0.00 37 1016.7
20260901040004 64 128 0.0 0.9 0.00 0.00 0.00 36 1016.7
20260901034606 65 128 0.0 4.3 0.00 0.00 0.00 35 1016.7
20260901033108 66 149 0.0 2.6 0.00 0.00 0.00 34 1016.6
20260901031547 66 157 0.0 4.3 0.00 0.00 0.00 33 1016.6
20260901030027 67 155 0.0 0.0 0.00 0.00 0.00 33 1016.4
20260901024544 69 150 0.0 0.0 0.00 0.00 0.00 31 1016.4
20260901023049 71 146 0.0 3.5 0.00 0.00 0.00 28 1016.3
20260901021526 74 118 0.0 1.7 0.00 0.00 0.00 25 1016.3
20260901020009 77 84 0.0 3.5 0.00 0.00 0.00 24 1016.3
20260901014601 78 84 0.0 1.7 0.00 0.00 0.00 22 1016.4
20260901013041 79 66 0.0 5.2 0.00 0.00 0.00 21 1016.5
20260901011532 80 84 0.0 3.5 0.00 0.00 0.00 20 1016.5
20260901010026 80 98 0.9 1.7 0.00 0.00 0.00 20 1016.7
20260901004507 80 42 0.9 4.3 0.00 0.00 0.00 21 1016.7
20260901003057 80 11 0.0 2.6 0.00 0.00 0.00 21 1016.8
20260901001554 80 60 0.9 3.5 0.00 0.00 0.00 20 1017.1
20260901000045 80 94 2.6 8.7 0.00 0.00 0.00 21 1017.2
20260831234529 80 58 0.0 4.3 0.00 0.00 0.00 21 1017.3
20260831233011 80 104 0.9 4.3 0.00 0.00 0.00 21 1017.4
20260831231606 80 84 1.7 5.2 0.00 0.00 0.00 21 1017.7
20260831230045 80 20 0.9 1.7 0.00 0.00 0.00 20 1017.8
20260831224529 79 32 0.9 5.2 0.00 0.00 0.00 21 1018.1
20260831223009 79 97 0.9 3.5 0.00 0.00 0.00 21 1018.3
20260831221558 79 44 0.0 5.2 0.00 0.00 0.00 21 1018.6
20260831221503 79 360 0.0 5.2 0.00 0.00 0.00 21 1018.6
20260831220045 79 15 0.0 3.5 0.00 0.00 0.00 21 1018.9
20260831214535 79 90 0.0 7.0 0.00 0.00 0.00 22 1019.2
20260831213016 79 26 0.0 7.0 0.00 0.00 0.00 22 1019.4
20260831211511 79 17 0.9 3.5 0.00 0.00 0.00 22 1019.6
20260831210058 78 13 0.0 3.5 0.00 0.00 0.00 23 1019.7
20260831204546 78 313 0.0 4.3 0.00 0.00 0.00 23 1019.9
20260831203025 78 34 0.0 5.2 0.00 0.00 0.00 23 1020.1
20260831201514 78 46 0.0 7.8 0.00 0.00 0.00 23 1020.4
20260831200003 78 33 0.9 3.5 0.00 0.00 0.00 22 1020.7
20260831194610 77 30 0.0 7.0 0.00 0.00 0.00 23 1020.8
20260831193042 77 83 0.0 2.6 0.00 0.00 0.00 25 1020.8
20260831191522 76 52 0.0 1.7 0.00 0.00 0.00 27 1021.1
20260831190015 74 22 0.0 2.6 0.00 0.00 0.00 27 1021.4
20260831184559 73 42 0.0 1.7 0.00 0.00 0.00 27 1021.7
20260831183028 73 21 0.0 3.5 0.00 0.00 0.00 28 1021.8
20260831181514 71 17 0.0 2.6 0.00 0.00 0.00 29 1022.1
20260831180056 70 299 0.0 1.7 0.00 0.00 0.00 31 1022.1
20260831174537 70 15 0.0 0.0 0.00 0.00 0.00 31 1022.4
20260831173025 67 24 0.0 2.6 0.00 0.00 0.00 35 1022.6
20260831171504 65 5 0.0 2.6 0.00 0.00 0.00 37 1022.7
20260831170054 63 36 0.0 0.0 0.00 0.00 0.00 41 1022.9
20260831164537 62 15 0.0 0.0 0.00 0.00 0.00 41 1023.0
20260831163014 61 320 0.0 0.0 0.00 0.00 0.00 43 1023.0
20260831161551 60 319 0.0 0.9 0.00 0.00 0.00 44 1023.1
20260831160032 58 319 0.0 0.0 0.00 0.00 0.00 45 1023.2
20260831154523 58 318 0.0 0.0 0.00 0.00 0.00 47 1023.3
20260831153107 57 319 0.0 0.0 0.00 0.00 0.00 48 1023.2
20260831151545 55 279 0.0 0.0 0.00 0.00 0.00 51 1023.2
20260831150010 54 279 0.0 0.0 0.00 0.00 0.00 53 1023.1
20260831144545 52 274 0.0 0.0 0.00 0.00 0.00 57 1023.2
20260831143024 49 267 0.0 0.0 0.00 0.00 0.00 65 1023.1
20260831141510 47 222 0.0 0.0 0.00 0.00 0.00 69 1022.9
20260831140100 46 223 0.0 0.0 0.00 0.00 0.00 67 1022.9
20260831140001 46 223 0.0 0.0 0.00 0.00 0.00 67 1022.9
20260831134604 46 223 0.0 0.0 0.00 0.00 0.00 67 1022.9